Dewpoint
-1 -0 -0 -1 -2 -1 -1 -1 -1 -0 0 -1 -1 -1 0 1 0 1 0 -1 1 2 3 3 3 5 6 5 4 3 4 4 4 6 7 6 6 5 5 4 4 4 4 4 5 5 5 -7 -5 0 -1 -5 -7 -8
0 -0 -0 0 -0 -0 -0 0 -0 -0 1 1 -1 -1 0 1 1 2 1 -2 -0 1 1 1 2 3 3 4 5 4 5 3 4 5 4 5 5 5 5 7 3 6 4 4 4 3 -1 -6 -5 -1 -7 -7 -7 -8
-0 1 0 0 0 0 0 0 -0 1 1 1 0 1 1 1 1 1 1 0 0 1 0 1 2 2 2 3 4 4 4 4 4 4 3 3 5 4 5 5 3 4 3 4 3 3 -2 -4 -5 -9 -9 -9 -8 -6
-1 -1 -1 -0 0 1 0 -0 1 1 1 1 1 1 1 1 2 2 1 0 -1 -0 0 -0 -0 0 1 1 2 4 4 4 4 4 2 3 4 3 4 4 4 3 3 2 2 -1 -2 -5 -8 -8 -6 -5 -4 -4
-0 -1 -2 -2 -1 1 0 1 1 1 1 1 1 1 1 1 2 2 1 -1 -1 -3 -1 -1 -0 1 1 2 2 3 3 3 4 2 1 2 1 1 -0 1 1 2 1 1 1 -4 -4 -4 -4 -5 -5 -3 -3 -4
-0 -1 -2 -2 -1 1 1 1 1 1 0 1 0 0 1 1 2 2 1 1 -0 -1 -2 -4 -1 -1 0 1 2 2 3 3 3 1 0 0 0 0 1 1 -2 -2 -2 -2 -7 -7 -4 -3 -4 -4 -5 -5 -6 -7
-0 -0 -1 -3 -1 0 1 1 1 1 1 -0 -1 -0 1 1 1 1 0 1 1 0 -1 -2 -4 -1 -0 1 1 1 1 0 0 -0 -0 -1 -0 0 1 1 -8 -8 -8 -8 -6 -6 -4 -4 -5 -6 -7 -7 -8 -8
-1 -1 -1 -2 -0 1 1 1 1 0 -0 -0 -0 1 1 1 1 1 -0 -2 -1 1 -0 -2 -3 -1 -1 -1 -1 -1 -1 -0 -1 -1 -1 -1 -0 -0 1 -4 -7 -2 -4 -5 -4 -5 -4 -5 -6 -8 -9 -12 -14 -13
0 0 -0 1 0 1 0 1 1 0 0 1 1 1 1 1 1 1 2 1 1 1 -1 -3 -2 -1 -1 -1 -1 -1 -1 -1 -1 -1 -1 -1 -1 -0 -3 -7 -4 -2 -5 -3 -4 -5 -6 -7 -9 -11 -13 -13 -13 -11
0 0 0 1 1 1 1 0 0 0 1 1 1 1 -0 -0 0 0 1 1 1 1 -1 -3 -3 -2 -1 -1 -1 -1 -1 -1 -0 -0 -1 -0 -2 -4 -6 -4 -3 -4 -4 -5 -6 -6 -8 -10 -11 -11 -11 -12 -14 -11
0 0 0 0 0 1 0 0 1 1 1 -0 -1 -2 -0 0 1 0 -0 -1 -1 -1 -0 -2 -2 -1 -1 -2 -1 -1 -1 -1 1 -0 -1 -1 -1 -2 -2 -3 -4 -4 -4 -5 -7 -8 -11 -14 -12 -11 -12 -16 -14 -13
0 1 1 1 0 0 -0 0 0 -0 0 0 -1 -1 -1 1 -0 -1 -1 -1 -0 1 -0 -2 -2 -0 -1 -0 -0 -0 1 0 1 -2 -0 -0 -1 -2 -3 -4 -4 -5 -6 -8 -9 -13 -17 -15 -16 -15 -17 -16 -12 -13
0 0 0 0 0 0 0 1 1 0 1 -1 -1 -1 -1 -2 -0 0 -0 0 0 -0 -1 -1 -0 -0 0 -0 -0 -1 0 0 -2 -1 -0 -1 -2 -3 -4 -4 -5 -6 -8 -10 -11 -13 -16 -18 -18 -17 -15 -14 -13 -15
0 0 0 0 1 1 1 1 0 1 -0 -0 -1 -2 -2 -3 -2 -1 -1 -1 -1 -1 -1 -1 -0 0 -0 -0 -1 -1 -1 -2 -1 -0 -0 -2 -3 -4 -5 -5 -6 -7 -8 -11 -10 -14 -17 -17 -15 -15 -15 -15 -15 -15
1 1 1 1 1 1 1 1 1 0 -1 -1 -1 -1 -1 -2 -2 -1 -2 -1 -1 -1 -1 -1 -1 -1 -0 -0 -1 -1 -0 -1 -1 -1 -1 -2 -3 -4 -5 -6 -6 -7 -10 -10 -12 -16 -15 -15 -15 -15 -15 -15 -15 -15
0 -0 0 -0 -0 -0 -0 -1 -0 -1 -1 -1 -2 -2 -2 -1 -2 -1 -1 -1 -1 -1 -2 -2 -0 -0 -0 -0 -1 -2 -1 -1 -2 -2 -2 -2 -4 -5 -5 -6 -7 -11 -12 -12 -14 -16 -15 -15 -16 -15 -15 -15 -16 -17
0 -1 0 -0 -1 -1 -1 -0 -0 -1 -1 -1 -1 -0 0 -1 -1 -1 -1 -1 -2 -2 -0 -0 -0 -1 -1 -1 -2 -2 -2 -4 -1 -2 -3 -3 -4 -5 -5 -7 -11 -12 -12 -14 -15 -15 -16 -17 -15 -16 -17 -17 -17 -17
-1 -0 -0 -0 -1 -0 -0 -1 -1 -1 -1 -0 0 -1 -2 -2 -1 -1 -1 -2 -2 -2 -2 -2 -3 -2 -2 -3 0 -1 -1 -2 -2 -3 -4 -4 -4 -5 -7 -11 -12 -13 -14 -14 -16 -16 -16 -17 -17 -18 -18 -18 -18 -18
-1 -2 -1 -1 -1 -1 -1 -1 -1 -1 -1 -0 -1 -2 -2 -2 -2 -2 -2 -1 -3 -3 -4 -3 -4 -2 -2 -3 -2 -2 -2 -3 -4 -4 -4 -4 -5 -8 -12 -16 -15 -15 -15 -18 -15 -15 -18 -18 -18 -18 -17 -18 -19 -18
-1 -1 -1 -1 -1 -2 -1 -1 -1 -1 -1 -1 -0 -0 -1 -2 -4 -4 -5 -4 -4 -2 -1 -1 -1 -2 -2 -2 -2 -2 -3 -3 -4 -5 -6 -7 -9 -12 -18 -19 -17 -14 -17 -15 -15 -17 -19 -19 -18 -17 -17 -19 -19 -18
-1 -1 -1 -2 -3 -4 -3 -1 -1 -1 -1 -0 -1 -1 -1 -4 -4 -5 -4 -4 -2 -1 -1 -1 -2 -1 -2 -2 -3 -3 -4 -4 -5 -6 -7 -7 -8 -11 -17 -18 -14 -16 -16 -16 -16 -16 -17 -19 -18 -17 -17 -19 -18 -17
-3 -4 -4 -4 -4 -2 -3 -4 -2 -2 -1 -2 -3 -3 -3 -3 -4 -6 -3 -2 -3 -2 -1 -2 -2 -2 -2 -3 -4 -4 -5 -7 -9 -11 -10 -10 -10 -13 -16 -14 -15 -15 -15 -16 -17 -20 -20 -18 -18 -17 -18 -18 -18 -16
-4 -5 -6 -7 -5 -3 -3 -5 -6 -5 -3 -4 -5 -4 -3 -4 -6 -6 -3 -3 -1 -1 -1 -2 -2 -3 -4 -4 -6 -8 -9 -12 -12 -11 -11 -15 -19 -18 -14 -13 -15 -17 -15 -15 -18 -20 -20 -21 -18 -18 -18 -18 -17 -16
-6 -7 -6 -5 -5 -5 -5 -5 -6 -5 -4 -4 -4 -3 -3 -6 -6 -3 -2 -3 -2 -1 -2 -3 -5 -5 -5 -7 -7 -8 -9 -11 -14 -15 -18 -16 -13 -12 -13 -16 -17 -15 -16 -18 -18 -17 -19 -20 -20 -19 -18 -18 -17 -16
-10 -7 -6 -7 -4 -6 -6 -6 -4 -5 -5 -5 -5 -4 -5 -5 -6 -4 -3 -2 -2 -2 -3 -4 -5 -7 -7 -6 -6 -6 -6 -8 -10 -12 -13 -14 -13 -12 -12 -13 -13 -14 -17 -18 -17 -18 -21 -20 -20 -19 -18 -18 -17 -16
-8 -7 -8 -7 -6 -6 -5 -6 -7 -6 -6 -6 -5 -4 -4 -6 -7 -3 -2 -3 -3 -3 -3 -4 -6 -7 -7 -7 -7 -7 -8 -8 -11 -14 -14 -13 -14 -16 -14 -14 -16 -17 -18 -19 -21 -22 -22 -22 -20 -18 -18 -18 -18 -17
-8 -8 -6 -5 -5 -5 -5 -5 -4 -6 -8 -7 -6 -7 -8 -8 -6 -3 -2 -3 -3 -3 -4 -5 -7 -8 -8 -8 -10 -12 -11 -14 -18 -17 -14 -13 -15 -17 -18 -21 -21 -20 -19 -18 -17 -18 -22 -22 -21 -19 -19 -19 -19 -18
-5 -4 -6 -5 -4 -5 -8 -7 -8 -8 -5 -4 -6 -8 -9 -8 -3 -3 -2 -2 -3 -3 -3 -4 -6 -8 -10 -10 -9 -9 -9 -11 -14 -15 -15 -14 -14 -14 -15 -18 -17 -15 -15 -16 -17 -18 -22 -22 -22 -20 -19 -19 -18 -18
-5 -5 -6 -9 -7 -6 -4 -5 -5 -3 -3 -4 -9 -6 -4 -5 -4 -3 -3 -3 -3 -3 -3 -4 -4 -5 -6 -7 -8 -8 -9 -11 -12 -13 -14 -17 -17 -17 -21 -21 -21 -22 -22 -21 -22 -23 -23 -22 -21 -20 -20 -19 -18 -18
-5 -5 -8 -9 -9 -5 -5 -4 -4 -4 -5 -5 -6 -5 -5 -5 -4 -4 -4 -3 -2 -3 -4 -5 -5 -5 -6 -7 -7 -7 -8 -10 -10 -12 -14 -19 -24 -27 -29 -30 -30 -28 -25 -24 -24 -23 -23 -22 -21 -20 -19 -19 -18 -18
-4 -7 -7 -6 -6 -5 -4 -5 -6 -6 -6 -6 -6 -6 -6 -6 -5 -4 -4 -4 -3 -3 -4 -5 -5 -6 -6 -7 -8 -8 -9 -9 -10 -10 -13 -20 -27 -28 -27 -26 -26 -25 -24 -23 -23 -22 -22 -22 -21 -20 -19 -19 -19 -19
-5 -7 -9 -8 -6 -5 -5 -5 -5 -5 -5 -6 -6 -6 -7 -7 -7 -7 -6 -5 -4 -4 -5 -5 -6 -7 -7 -8 -8 -8 -8 -9 -10 -11 -17 -28 -28 -27 -28 -29 -26 -24 -23 -23 -22 -22 -22 -21 -21 -20 -20 -20 -19 -19
-7 -7 -7 -6 -6 -6 -5 -6 -6 -6 -6 -6 -6 -6 -6 -7 -8 -8 -7 -6 -6 -6 -6 -6 -6 -7 -7 -7 -7 -8 -8 -11 -16 -18 -22 -25 -26 -29 -31 -31 -26 -24 -23 -23 -22 -22 -22 -22 -21 -21 -21 -21 -22 -23
Wind_Speed
47 48 48 50 51 51 51 52 52 53 53 54 53 54 54 54 51 51 50 43 30 15 11 2 5 3 4 10 5 6 5 4 2 6 4 3 4 7 5 5 8 8 8 4 3 4 7 4 2 3 3 4 6 9
45 46 47 47 48 50 48 49 50 52 52 53 54 53 54 54 51 51 41 50 40 20 6 19 13 7 8 10 3 21 4 6 12 4 2 2 3 2 3 5 2 4 6 5 7 4 3 8 10 8 12 8 7 8
41 45 46 45 46 47 49 49 50 50 51 52 53 53 54 52 51 53 41 42 34 26 14 14 12 9 6 10 14 8 10 10 10 7 7 2 4 3 4 4 3 1 4 3 2 4 3 2 5 7 9 8 11 13
43 42 42 44 45 49 47 47 49 51 51 51 52 52 51 51 50 51 43 42 40 17 6 6 17 21 19 20 19 21 14 11 10 9 3 3 2 6 2 0 3 3 7 5 2 2 4 2 5 6 12 12 13 12
43 44 42 42 44 48 46 47 48 51 50 51 51 49 50 49 48 50 39 40 40 30 9 7 7 4 8 12 13 16 25 16 10 5 2 2 4 4 2 1 2 8 5 5 4 11 8 12 17 12 13 15 13 12
44 44 44 42 43 45 47 45 46 47 48 49 47 47 47 47 49 46 17 34 37 31 8 2 5 7 7 9 13 18 22 17 7 4 4 4 5 5 3 3 7 17 17 16 8 15 23 20 17 14 14 13 14 15
45 47 45 45 44 45 48 46 49 46 46 47 47 45 44 47 51 38 11 18 42 32 7 3 1 6 14 15 9 8 10 5 3 3 3 3 3 6 2 4 9 15 20 20 23 25 18 9 11 12 13 13 13 13
50 46 46 47 46 49 47 46 46 46 47 46 46 44 45 45 41 32 13 13 42 27 9 3 2 4 11 4 3 2 2 4 4 3 3 3 5 1 3 8 20 22 24 19 16 13 17 14 9 11 11 12 14 16
49 48 49 49 48 50 46 47 48 47 48 48 47 45 44 47 26 32 17 31 39 12 12 6 7 5 13 5 5 3 1 2 2 2 1 5 2 4 8 16 26 28 13 24 19 16 13 9 9 9 10 13 12 10
49 49 49 47 47 48 48 47 47 48 49 52 53 28 7 23 30 33 23 15 14 14 7 3 10 4 12 6 3 5 2 2 1 2 9 3 3 4 12 24 26 22 24 21 18 11 8 9 8 7 7 6 7 9
42 44 45 45 47 49 45 50 51 52 50 38 10 6 32 35 25 13 6 8 7 5 13 9 8 7 9 4 3 4 3 2 3 2 4 2 3 6 23 30 26 22 17 12 10 10 8 7 6 5 4 6 8 8
43 44 48 51 43 46 50 54 51 48 34 23 21 36 30 10 5 6 6 4 4 7 10 9 12 11 9 7 4 4 2 2 2 7 3 3 4 28 30 29 24 19 14 14 9 10 9 8 7 6 6 8 5 8
45 47 49 50 51 51 55 60 47 32 36 42 19 7 7 4 4 7 9 4 5 6 11 17 10 9 7 5 4 3 4 3 9 1 4 3 22 30 36 31 25 17 15 14 13 10 10 9 9 7 6 5 4 10
39 40 41 42 43 45 48 47 39 39 25 6 5 6 4 4 5 5 5 5 10 21 29 30 10 5 6 3 3 4 3 4 3 4 6 6 29 33 36 30 26 21 14 15 15 11 10 9 9 6 4 4 5 10
38 38 38 39 39 47 48 43 40 31 5 4 6 7 8 5 6 4 10 16 19 40 37 16 9 7 3 3 2 4 5 5 7 5 5 24 35 39 36 30 24 21 19 20 15 10 9 9 8 6 5 3 7 11
35 35 37 39 47 41 45 37 28 10 5 4 5 2 3 2 1 5 15 25 42 37 26 10 4 4 3 4 6 7 8 7 4 3 25 34 37 38 34 27 22 21 21 19 12 10 9 9 10 7 3 4 9 13
32 33 48 51 47 44 32 23 7 5 3 1 2 6 6 8 8 16 26 35 38 27 3 4 6 7 5 4 6 5 5 4 14 25 32 39 42 37 30 27 24 23 21 15 13 12 11 10 9 5 0 6 10 12
42 45 44 43 40 25 19 5 5 3 2 1 2 7 8 15 21 26 31 31 20 4 4 4 8 4 5 7 4 4 8 22 25 33 36 40 35 30 27 25 24 22 18 16 15 14 11 11 7 1 3 7 10 12
48 45 42 36 29 10 4 3 2 3 5 5 11 18 19 21 24 25 22 23 12 6 12 3 3 3 3 2 9 21 25 29 32 34 37 33 31 28 26 25 24 20 18 18 18 14 11 7 2 1 5 9 11 12
42 36 30 21 14 5 4 3 4 5 3 4 10 14 11 10 18 26 27 21 10 4 4 2 1 2 6 20 31 32 34 41 46 38 33 30 26 26 27 26 24 21 20 19 15 12 10 6 3 4 7 10 12 10
30 23 20 19 14 7 5 4 5 5 7 6 15 14 8 19 18 15 8 4 6 2 2 3 10 22 29 32 35 41 43 43 42 40 42 35 29 25 24 23 22 21 22 20 16 13 8 5 4 5 8 10 10 8
20 16 15 12 6 5 5 4 8 10 5 8 6 6 4 2 2 4 5 8 4 4 4 13 23 29 32 33 37 37 38 34 29 30 31 31 32 28 28 27 24 23 19 16 13 9 6 5 5 7 9 8 8 8
15 11 4 3 5 4 1 4 4 4 3 2 4 3 3 2 2 3 4 4 4 11 22 27 27 27 32 33 31 29 26 24 25 28 27 27 26 26 25 25 22 22 20 16 11 9 7 6 6 8 8 8 8 8
11 3 3 3 3 2 3 3 4 5 5 3 3 3 1 2 2 4 3 3 13 24 25 27 30 33 31 29 30 27 23 20 23 24 25 25 25 24 23 22 20 15 12 10 9 8 6 6 7 7 7 8 8 8
3 3 3 3 2 4 4 3 3 4 3 2 3 1 2 3 2 3 3 6 19 27 28 29 29 30 33 27 23 22 19 20 24 26 24 22 23 23 21 17 17 15 13 12 11 8 8 7 7 6 7 8 8 8
4 1 4 5 2 4 4 4 4 4 4 2 2 5 4 3 3 2 4 20 24 31 31 29 28 28 26 25 27 24 23 22 21 22 22 22 21 21 23 23 19 15 12 9 9 9 8 8 7 8 8 9 9 8
3 3 1 2 4 7 5 5 6 4 3 4 3 2 3 4 2 2 8 19 23 26 24 23 24 25 26 25 21 19 17 18 17 16 19 18 14 12 10 10 9 7 7 7 7 7 7 8 9 9 9 9 8 8
4 4 3 7 8 7 4 3 3 3 2 4 5 3 4 4 2 2 4 14 17 21 22 19 15 15 17 20 21 21 20 17 17 19 19 18 16 13 9 6 7 6 5 6 7 7 8 8 9 9 8 8 8 9
5 4 6 6 6 7 5 3 2 3 3 2 4 2 3 4 5 9 11 14 19 24 25 22 19 15 18 20 19 17 16 19 23 24 23 20 17 14 12 10 8 8 8 8 8 8 8 8 8 9 9 9 9 8
3 4 5 4 4 3 5 6 8 9 11 12 11 19 21 19 14 13 13 16 19 21 20 18 19 22 23 23 22 21 19 16 13 12 14 14 10 8 8 9 9 9 8 9 8 8 8 8 9 9 8 8 9 7
3 5 5 5 3 5 14 26 25 24 27 28 25 24 17 16 20 13 10 11 14 18 19 21 24 22 19 20 20 20 19 19 19 18 14 10 9 7 7 8 8 8 8 7 7 7 7 7 7 8 8 9 8 8
5 5 4 4 3 9 11 12 12 14 15 17 16 16 13 9 7 5 9 12 15 18 18 19 20 19 16 13 13 13 9 8 11 12 10 8 8 7 6 6 6 6 6 6 6 6 6 6 7 8 9 9 10 10
16 23 18 7 3 3 3 6 5 5 10 7 7 5 6 4 4 3 7 8 9 10 11 12 11 11 12 12 11 9 5 5 7 9 10 8 7 5 4 5 5 5 5 5 6 6 6 6 7 8 9 10 10 11
Wind_Direction
220 219 218 220 218 216 215 214 213 211 210 208 209 211 209 207 206 203 205 201 205 215 231 171 7 248 200 199 149 150 132 205 145 195 196 201 208 205 189 182 170 163 174 193 196 234 276 130 38 164 203 225 247 246
219 216 213 212 212 211 208 208 210 208 207 205 205 207 207 205 203 200 200 206 210 219 235 249 264 312 287 245 210 171 190 153 193 161 196 142 192 208 155 235 74 190 201 180 194 207 95 52 37 305 264 258 312 332
215 215 214 211 209 207 206 207 205 203 203 202 202 203 203 202 199 200 194 194 198 205 229 250 251 236 275 273 245 204 224 220 211 210 151 147 205 142 181 216 136 148 153 160 120 173 234 87 248 89 68 36 20 27
210 207 205 204 205 205 203 203 200 201 199 199 198 199 200 197 196 197 189 195 195 184 217 215 239 248 247 254 260 240 234 223 220 189 137 155 168 186 217 249 175 170 134 145 186 252 225 135 85 48 67 67 57 45
206 201 200 199 198 199 197 197 197 198 193 194 191 192 193 194 191 194 188 197 198 185 175 159 186 251 241 244 247 237 232 237 187 166 139 165 139 121 76 49 236 182 161 172 204 195 158 87 94 97 80 63 46 36
197 197 194 193 191 192 191 190 190 189 185 182 187 188 188 189 187 180 169 198 197 196 211 118 202 192 213 194 199 195 202 202 196 161 119 151 164 144 151 207 244 221 210 186 155 122 122 113 86 69 69 52 41 37
189 189 188 187 186 186 184 185 184 183 181 183 187 185 184 185 186 170 176 185 186 185 180 105 279 178 156 151 152 133 145 123 125 112 107 142 149 142 175 183 157 118 125 130 141 138 100 85 85 65 51 43 30 27
182 180 178 181 179 183 180 180 181 181 180 182 178 178 181 183 179 175 169 158 177 175 191 135 140 162 173 124 102 119 108 101 72 80 109 126 130 140 230 222 149 127 123 120 122 120 116 112 88 46 30 23 22 22
169 173 176 172 177 175 176 177 178 177 177 174 172 175 178 173 171 179 161 168 171 175 162 164 154 186 161 121 137 115 116 82 128 117 207 164 160 217 222 176 154 151 150 136 122 112 113 89 60 40 30 32 28 28
159 162 165 169 170 173 171 169 171 172 176 168 165 153 137 153 163 168 141 158 170 204 179 156 142 143 150 147 139 129 130 145 133 212 160 212 234 279 185 156 158 151 146 146 127 105 93 79 74 61 50 42 38 40
149 155 159 164 166 168 168 170 169 168 155 139 127 97 131 143 147 168 181 186 158 176 169 160 162 135 166 134 132 186 172 176 131 222 193 244 231 146 140 142 144 144 146 137 129 113 97 97 114 141 102 50 56 33
153 155 157 161 162 162 162 163 163 152 164 158 136 131 128 141 153 168 180 168 188 195 159 142 146 127 130 130 115 173 138 193 131 166 167 246 175 149 145 145 144 146 141 126 115 116 113 128 139 124 81 60 55 17
130 135 136 138 142 147 147 151 154 146 142 119 127 148 154 149 157 191 175 188 162 154 154 151 135 130 123 114 112 145 180 135 141 154 227 229 144 148 150 149 142 141 139 134 129 128 132 123 116 93 90 64 56 9
134 137 140 143 148 152 158 162 157 144 129 126 122 116 183 188 218 195 171 159 151 145 148 146 118 124 125 123 162 133 146 122 221 225 224 157 156 151 153 154 150 149 152 146 149 141 126 119 121 118 97 80 21 358
137 142 145 151 158 164 170 164 163 158 103 101 134 175 203 197 217 213 184 141 146 146 146 121 71 90 93 110 188 133 153 212 220 225 165 160 155 154 155 157 156 156 159 160 156 144 134 133 146 145 117 50 351 342
135 138 148 159 163 155 153 145 148 113 111 137 173 144 227 109 148 154 150 137 146 142 124 92 106 122 145 155 173 200 177 216 214 171 148 150 149 157 157 158 161 162 162 160 156 152 151 157 154 151 157 339 341 342
146 137 156 157 158 154 141 130 100 65 93 128 252 208 192 138 143 148 150 150 152 145 129 142 138 184 132 186 191 182 205 177 138 139 149 155 160 159 159 159 160 163 165 163 162 170 169 160 169 183 301 356 342 338
142 154 161 160 162 130 119 82 87 100 158 114 127 120 140 132 130 138 143 149 156 107 157 138 130 166 174 178 180 155 117 126 138 146 150 158 160 162 163 161 166 170 166 169 176 173 170 176 186 152 1 343 333 330
150 144 149 151 145 119 90 70 75 97 44 57 90 104 111 119 131 140 136 142 139 130 123 102 127 172 185 168 138 134 136 140 137 143 154 158 161 161 164 167 168 168 173 176 176 177 176 180 181 338 331 328 328 329
136 132 131 120 109 93 94 69 66 78 45 44 76 79 91 101 117 115 121 146 129 74 45 39 241 226 145 143 145 145 146 149 146 139 148 155 161 163 167 172 172 173 175 175 177 175 180 183 226 296 315 320 321 324
123 118 104 97 84 80 90 112 77 83 84 82 90 75 58 80 83 93 76 70 66 54 97 65 105 119 134 143 151 153 153 158 158 160 159 162 168 169 172 175 176 180 180 179 177 178 192 216 251 288 306 311 313 319
113 100 89 84 75 71 65 76 126 128 94 131 100 90 110 83 61 57 80 54 58 62 116 135 136 140 143 149 153 155 158 161 158 160 162 162 166 175 175 177 179 181 186 188 193 202 210 230 264 289 302 302 308 318
113 119 92 78 91 68 13 112 84 91 104 120 75 63 38 45 60 77 74 63 65 134 144 137 139 145 145 150 152 152 155 155 157 164 168 174 175 177 178 183 192 190 190 194 202 212 226 245 262 284 295 301 310 319
140 115 69 65 75 173 154 43 79 80 95 73 76 90 100 191 95 71 79 69 138 148 144 143 143 140 142 146 149 151 156 161 161 166 172 171 174 179 186 186 188 196 205 203 206 218 235 254 275 285 293 300 309 319
97 18 87 6 133 86 71 33 41 56 91 78 84 42 245 148 76 74 127 150 156 157 155 156 155 152 151 154 154 162 172 180 175 169 174 183 179 174 179 186 195 208 213 212 216 230 246 259 268 282 286 298 299 308
83 228 140 186 198 107 159 123 163 145 103 85 150 152 151 89 72 104 174 171 173 171 171 170 165 161 161 165 165 172 178 188 187 180 181 190 190 188 187 189 192 197 207 215 227 236 243 259 270 275 287 292 301 310
86 283 290 51 140 120 99 94 102 97 109 147 171 102 88 87 151 203 138 168 180 182 180 180 182 178 172 174 176 173 175 182 194 193 184 189 200 203 210 203 200 193 202 214 228 240 258 264 267 277 285 296 299 307
57 42 70 338 60 46 102 74 94 138 154 136 100 82 119 151 124 112 112 168 186 179 180 179 182 182 180 184 183 179 175 178 189 191 184 187 193 201 211 204 197 211 226 236 245 258 263 263 267 274 281 285 290 299
34 26 68 27 44 44 35 48 64 54 332 154 112 98 95 77 100 116 131 158 167 175 172 169 169 181 182 184 188 194 198 196 191 189 195 195 194 199 208 213 217 223 230 238 246 252 259 256 255 261 269 277 283 287
14 39 94 57 63 55 17 60 67 78 95 104 101 110 95 91 111 130 140 154 163 167 170 176 183 187 183 183 186 194 207 214 224 236 227 216 205 212 218 217 218 227 235 240 245 252 253 255 258 261 265 272 281 281
94 90 73 61 75 51 80 79 85 87 89 97 112 103 102 101 97 112 135 161 171 167 167 175 175 182 190 192 198 200 205 210 213 218 218 206 210 200 195 198 206 216 225 232 239 244 251 257 261 264 267 271 278 292
41 100 123 97 94 88 84 61 61 84 90 84 83 98 92 68 62 72 103 135 153 159 170 175 179 181 188 193 198 203 204 216 219 213 204 198 192 185 184 190 201 213 222 230 237 246 252 254 261 270 277 284 293 299
87 95 98 88 63 72 84 97 79 58 39 47 45 78 77 77 83 105 122 146 162 172 191 190 180 191 189 189 187 179 176 169 175 185 192 193 191 192 193 196 205 213 221 232 245 256 264 270 275 279 284 287 291 293
Height
1228 1237 1247 1257 1267 1277 1287 1298 1308 1320 1332 1344 1355 1365 1376 1386 1399 1407 1416 1426 1433 1436 1438 1439 1441 1444 1444 1444 1452 1458 1464 1464 1470 1471 1472 1468 1468 1465 1465 1461 1468 1474 1483 1487 1484 1479 1472 1466 1468 1474 1472 1469 1469 1468
1218 1226 1236 1246 1256 1266 1277 1288 1300 1311 1323 1335 1346 1357 1369 1380 1393 1402 1411 1419 1429 1436 1436 1437 1441 1441 1443 1446 1449 1450 1450 1451 1452 1457 1462 1461 1465 1464 1460 1455 1457 1464 1464 1467 1472 1466 1465 1466 1467 1469 1467 1466 1467 1467
1208 1217 1227 1236 1247 1257 1269 1280 1291 1303 1315 1327 1339 1350 1362 1374 1386 1394 1403 1414 1424 1432 1437 1439 1439 1441 1443 1444 1446 1449 1447 1448 1448 1448 1449 1455 1455 1456 1457 1457 1456 1458 1459 1462 1465 1464 1466 1467 1468 1466 1465 1465 1465 1464
1199 1209 1219 1229 1239 1250 1262 1273 1284 1296 1308 1320 1332 1345 1356 1368 1381 1389 1395 1407 1419 1429 1434 1434 1434 1437 1438 1441 1443 1444 1445 1445 1445 1446 1446 1448 1450 1452 1454 1452 1451 1455 1458 1462 1466 1466 1465 1466 1465 1464 1462 1461 1461 1461
1191 1202 1213 1223 1234 1245 1256 1267 1278 1290 1303 1315 1327 1339 1352 1364 1376 1385 1396 1406 1414 1424 1425 1430 1432 1433 1433 1435 1438 1439 1442 1443 1442 1443 1442 1446 1445 1450 1454 1456 1455 1450 1453 1458 1460 1455 1459 1465 1463 1461 1460 1461 1461 1461
1184 1196 1208 1219 1230 1241 1253 1264 1275 1287 1299 1312 1325 1338 1349 1361 1372 1382 1395 1405 1409 1416 1422 1430 1430 1429 1430 1432 1435 1436 1436 1438 1439 1439 1439 1442 1443 1446 1451 1452 1445 1443 1444 1447 1450 1453 1454 1460 1460 1461 1460 1461 1461 1461
1177 1190 1203 1217 1228 1239 1250 1262 1274 1287 1299 1312 1324 1336 1349 1359 1367 1375 1382 1386 1401 1412 1418 1427 1427 1428 1429 1431 1434 1435 1433 1435 1437 1438 1440 1443 1442 1444 1446 1446 1443 1442 1442 1445 1448 1450 1455 1457 1460 1462 1461 1461 1460 1461
1174 1188 1202 1214 1226 1238 1250 1262 1275 1287 1299 1312 1324 1338 1350 1360 1370 1379 1383 1387 1399 1410 1416 1420 1426 1429 1428 1428 1432 1434 1434 1434 1436 1438 1440 1441 1443 1444 1443 1437 1439 1442 1442 1447 1449 1450 1452 1457 1460 1459 1459 1459 1459 1459
1176 1189 1202 1215 1227 1239 1251 1263 1275 1287 1299 1313 1327 1340 1351 1357 1364 1374 1383 1390 1396 1404 1406 1412 1415 1421 1424 1427 1431 1434 1435 1435 1439 1437 1440 1442 1441 1439 1432 1430 1434 1438 1439 1446 1448 1451 1454 1455 1456 1457 1458 1458 1460 1461
1183 1194 1206 1218 1230 1241 1253 1265 1276 1288 1300 1314 1327 1333 1339 1347 1359 1374 1384 1388 1394 1396 1398 1401 1405 1412 1418 1425 1430 1433 1434 1434 1434 1438 1440 1438 1434 1427 1424 1427 1431 1436 1438 1443 1446 1450 1452 1454 1456 1457 1459 1461 1459 1459
1194 1203 1213 1223 1233 1244 1255 1266 1278 1290 1295 1301 1315 1328 1338 1353 1364 1374 1376 1377 1378 1386 1387 1394 1398 1402 1412 1417 1423 1428 1431 1430 1428 1437 1437 1433 1425 1424 1426 1426 1433 1436 1440 1442 1444 1448 1451 1453 1456 1459 1460 1457 1456 1457
1203 1212 1219 1228 1236 1246 1256 1266 1277 1288 1299 1306 1313 1330 1343 1353 1358 1363 1365 1366 1367 1368 1373 1379 1391 1397 1405 1410 1417 1425 1423 1427 1424 1431 1434 1423 1410 1416 1423 1426 1431 1435 1437 1440 1444 1447 1451 1453 1455 1457 1456 1454 1455 1455
1211 1219 1226 1235 1244 1253 1264 1274 1283 1291 1300 1313 1326 1331 1335 1341 1344 1345 1346 1351 1355 1356 1364 1370 1384 1392 1402 1406 1414 1418 1420 1419 1424 1429 1419 1405 1408 1415 1419 1424 1430 1434 1436 1440 1444 1449 1451 1454 1453 1454 1454 1454 1454 1453
1226 1233 1240 1248 1255 1263 1271 1279 1288 1295 1304 1311 1315 1328 1333 1339 1335 1331 1331 1335 1340 1347 1357 1364 1372 1383 1392 1402 1408 1410 1413 1418 1424 1418 1398 1402 1406 1412 1417 1422 1426 1431 1436 1440 1445 1448 1449 1451 1452 1453 1454 1454 1453 1452
1238 1244 1251 1257 1263 1270 1277 1284 1291 1300 1304 1312 1318 1323 1322 1317 1317 1316 1320 1328 1330 1339 1350 1361 1372 1377 1389 1399 1403 1405 1412 1410 1398 1386 1389 1394 1401 1407 1413 1420 1425 1429 1435 1440 1443 1444 1446 1448 1450 1452 1452 1452 1451 1449
1246 1253 1259 1264 1269 1274 1281 1289 1295 1302 1307 1311 1314 1313 1312 1314 1316 1318 1321 1326 1330 1338 1348 1357 1369 1378 1385 1388 1391 1392 1392 1384 1378 1380 1384 1393 1400 1407 1414 1419 1424 1430 1433 1437 1439 1442 1445 1447 1449 1450 1450 1449 1448 1446
1252 1256 1262 1268 1274 1281 1287 1292 1297 1301 1306 1307 1307 1309 1310 1309 1311 1315 1320 1325 1330 1333 1342 1350 1360 1366 1373 1374 1374 1373 1372 1370 1372 1379 1386 1391 1397 1405 1413 1418 1424 1429 1433 1435 1437 1441 1444 1446 1448 1448 1447 1446 1445 1443
1258 1265 1270 1275 1279 1285 1290 1294 1299 1303 1306 1306 1306 1307 1308 1308 1311 1317 1323 1328 1331 1332 1335 1337 1344 1352 1357 1355 1358 1362 1366 1370 1376 1381 1386 1394 1401 1407 1412 1416 1423 1428 1431 1434 1438 1440 1442 1444 1444 1444 1443 1443 1442 1441
1263 1269 1275 1279 1283 1288 1294 1300 1301 1304 1305 1305 1307 1308 1309 1312 1317 1323 1325 1330 1334 1333 1334 1338 1341 1344 1347 1347 1350 1358 1364 1370 1375 1384 1392 1398 1403 1407 1412 1418 1423 1427 1430 1433 1436 1439 1440 1441 1441 1441 1441 1440 1439 1438
1271 1276 1280 1283 1286 1291 1296 1300 1301 1304 1308 1310 1311 1313 1315 1319 1322 1325 1327 1333 1334 1335 1338 1341 1342 1341 1340 1344 1350 1356 1363 1369 1373 1384 1394 1401 1405 1409 1413 1417 1422 1426 1430 1433 1436 1437 1437 1437 1438 1438 1438 1437 1437 1436
1277 1280 1282 1285 1288 1291 1296 1301 1304 1308 1312 1314 1316 1316 1321 1321 1324 1329 1332 1334 1336 1341 1342 1343 1343 1342 1344 1349 1354 1359 1366 1372 1375 1378 1385 1397 1405 1409 1414 1418 1422 1426 1428 1430 1432 1434 1434 1435 1436 1436 1436 1435 1434 1433
1281 1285 1287 1289 1292 1297 1301 1303 1305 1309 1315 1318 1320 1323 1327 1330 1331 1332 1334 1337 1342 1344 1344 1345 1346 1347 1351 1356 1361 1366 1371 1377 1382 1386 1392 1397 1402 1407 1412 1416 1420 1423 1426 1427 1429 1430 1431 1432 1433 1433 1433 1433 1432 1431
1286 1288 1290 1291 1295 1300 1305 1304 1306 1309 1315 1318 1320 1324 1329 1331 1332 1334 1339 1345 1347 1348 1348 1349 1352 1356 1358 1363 1368 1373 1378 1381 1385 1390 1395 1399 1403 1408 1412 1416 1419 1421 1423 1425 1427 1428 1429 1430 1430 1431 1431 1430 1429 1429
1291 1291 1292 1294 1297 1303 1303 1303 1305 1309 1315 1319 1325 1331 1332 1333 1334 1336 1344 1348 1351 1352 1353 1355 1358 1361 1366 1369 1372 1376 1380 1385 1389 1393 1396 1400 1404 1408 1412 1414 1417 1420 1422 1423 1424 1425 1426 1427 1428 1428 1427 1427 1427 1426
1290 1296 1297 1300 1300 1303 1307 1310 1311 1315 1323 1325 1331 1334 1333 1333 1338 1342 1347 1350 1352 1354 1357 1360 1362 1363 1365 1371 1375 1380 1384 1387 1389 1392 1397 1401 1404 1408 1411 1414 1416 1418 1418 1419 1421 1422 1423 1424 1424 1425 1425 1424 1424 1423
1298 1296 1299 1299 1300 1301 1307 1316 1318 1320 1323 1330 1329 1329 1331 1335 1345 1346 1344 1346 1349 1352 1355 1357 1359 1365 1370 1373 1376 1381 1385 1389 1392 1394 1397 1400 1403 1405 1407 1409 1411 1413 1415 1417 1418 1419 1420 1421 1421 1422 1421 1421 1420 1420
1302 1301 1296 1295 1295 1297 1304 1307 1310 1315 1325 1330 1328 1331 1335 1350 1350 1344 1343 1345 1347 1350 1355 1359 1363 1366 1369 1374 1380 1385 1388 1390 1393 1396 1398 1401 1405 1406 1407 1408 1408 1411 1413 1414 1415 1416 1417 1418 1418 1419 1419 1418 1417 1417
1295 1295 1299 1297 1297 1299 1305 1309 1315 1319 1318 1318 1323 1335 1340 1343 1340 1341 1341 1343 1347 1353 1359 1363 1366 1369 1372 1377 1381 1385 1388 1391 1394 1397 1399 1402 1403 1404 1404 1405 1407 1408 1410 1412 1413 1414 1414 1415 1415 1416 1415 1415 1415 1414
1298 1298 1298 1304 1303 1307 1311 1314 1315 1316 1316 1317 1324 1330 1335 1338 1340 1342 1344 1347 1350 1354 1358 1361 1365 1370 1376 1380 1383 1386 1388 1390 1393 1395 1397 1398 1398 1399 1400 1402 1404 1406 1408 1409 1410 1411 1412 1412 1412 1412 1412 1412 1412 1411
1303 1302 1306 1311 1315 1318 1319 1317 1318 1317 1316 1317 1323 1331 1336 1342 1345 1347 1349 1351 1353 1355 1359 1364 1369 1373 1375 1379 1382 1386 1389 1391 1393 1395 1395 1395 1396 1397 1398 1400 1402 1404 1405 1407 1408 1408 1408 1408 1409 1409 1409 1409 1408 1407
1302 1304 1309 1314 1318 1321 1321 1323 1322 1321 1322 1326 1332 1333 1337 1343 1348 1350 1352 1355 1357 1359 1363 1367 1370 1374 1376 1379 1383 1385 1387 1389 1390 1391 1392 1392 1393 1395 1396 1398 1400 1402 1403 1404 1405 1405 1405 1406 1406 1406 1406 1405 1405 1404
1303 1306 1311 1318 1322 1324 1325 1327 1329 1334 1337 1337 1339 1343 1346 1348 1354 1358 1359 1359 1361 1363 1367 1370 1372 1375 1378 1381 1383 1385 1385 1386 1386 1387 1389 1390 1392 1394 1395 1397 1398 1399 1400 1401 1402 1402 1403 1403 1403 1403 1403 1402 1401 1401
1310 1310 1314 1318 1324 1326 1327 1328 1334 1338 1341 1345 1349 1350 1352 1355 1359 1361 1362 1363 1365 1366 1369 1371 1374 1376 1377 1379 1380 1382 1382 1383 1383 1385 1387 1389 1391 1393 1394 1395 1397 1398 1398 1399 1400 1400 1400 1400 1400 1400 1399 1399 1399 1398